Terminal Aerodrome Forecast
Issued by NWS Bismarck, ND

Home | Current Version | Previous Version | Text Only | Print | Product List | Glossary Off
Versions: 1 2 3 4 5 6 7 8 9 10 11 12 13 14

000
FTUS43 KBIS 040530
TAFBIS
TAF
KBIS 040530Z 0406/0506 06005KT P6SM SKC
     FM041500 11008KT P6SM FEW150 SCT250
     FM042100 12013KT P6SM FEW080 SCT150 BKN250=

USA.gov is the U.S. government's official web portal to all federal, state and local government web resources and services.